Location: Krakow
(50.0830°N, 19.9170°E)
Time: 09:47:13
(UTC+02:00)

Vanguard 3 - Pass Details

Date: 11 February 2023
Orbit: 508 x 3249 km, 33.4° (Epoch: 31 March)

Event Time Altitude Azimuth Distance (km) Brightness Sun altitude
Rises 21:12:31 0° 259° (W) 4,583 11.5 -41.1°
Reaches altitude 10° 21:16:06 10° 244° (WSW) 4,009 10.9 -41.6°
Enters shadow 21:22:49 22° 206° (SSW) 3,813 10.4 -42.5°
Maximum altitude 21:23:57 22° 200° (SSW) 3,898 - -42.6°
Drops below altitude 10° 21:34:42 10° 158° (SSE) 5,635 - -44.0°
Sets 21:41:14 0° 146° (SSE) 6,982 - -44.8°
